Location: Rodson Ranch
(38.7188°N, 119.3202°W)
Time: 17:28:50
(UTC+00:00)

ADEOS Rocket - Pass Details

Date: 29 October 2020
Orbit: 859 x 1306 km, 98.7° (Epoch: 23 November)

Event Time Altitude Azimuth Distance (km) Brightness Sun altitude
Rises 12:42:50 0° 187° (S) 3,446 5.8 -19.8°
Reaches altitude 10° 12:45:23 10° 196° (SSW) 2,494 5.0 -19.3°
Maximum altitude 12:50:25 37° 263° (W) 1,314 3.2 -18.3°
Drops below altitude 10° 12:55:32 10° 330° (NNW) 2,540 4.9 -17.3°
Sets 12:58:10 0° 338° (NNW) 3,519 5.7 -16.8°
